Weather History for Austin Bergstrom, TX

Change the Weather History Date:

Thursday, October 25, 2012

  Actual Average Record
Temperature  
Mean Temperature 76 °F 66 °F  
Max Temperature 88 °F 80 °F 92 °F (1950)
Min Temperature 63 °F 53 °F 32 °F (2005)
Degree Days  
Heating Degree Days 0 2  
Month to date heating degree days 19 31  
Since 1 July heating degree days 19 33  
Cooling Degree Days 11 4  
Month to date cooling degree days 187 155  
Year to date cooling degree days 3065 2683  
Growing Degree Days 28 (Base 50)    
Moisture  
Dew Point 66 °F    
Average Humidity 70    
Maximum Humidity 97    
Minimum Humidity 43    
Precipitation  
Precipitation 0.00 in 0.14 in 1.93 in (1975)
Month to date precipitation 0.75 3.18  
Year to date precipitation 34.21 26.18  
Snow  
Snow 0.00 in - - ()
Month to date snowfall 0.0  
Since 1 July snowfall 0.0  
Since 1 September snowfall 0.0  
Snow Depth 0.00 in    
Sea Level Pressure  
Sea Level Pressure 29.86 in    
Wind  
Wind Speed 10 mph (South)    
Max Wind Speed 25 mph    
Max Gust Speed 30 mph    
Visibility 10 miles    
Events      
T = Trace of Precipitation, MM = Missing Value Source: NWS Daily Summary

Daily Weather History Graph

Daily Weather History Graph

Search for Another Location

Airport:

Trip Planner

Search our weather history database for the weather conditions in past years. The results will help you decide how hot, cold, wet, or windy it might be!

Date:

Astronomy

Oct. 25, 2012 Rise Set
Actual Time 7:39 AM CDT 6:48 PM CDT
Civil Twilight 7:15 AM CDT 7:13 PM CDT
Nautical Twilight 6:47 AM CDT 7:41 PM CDT
Astronomical Twilight 6:19 AM CDT 8:09 PM CDT
Moon 4:22 PM CDT (10/25) 3:53 AM CDT (10/25)
Length of Visible Light 11h 57m
Length of Day
11h 09m
Waxing Gibbous, 84% of the Moon is Illuminated
Oct 25
Waxing Gibbous
Oct 29
Full
Nov 6
Last Quarter
Nov 13
New
Nov 20
First Quarter

Hourly Weather History & Observations

Time (CDT) Temp. Heat Index Dew Point Humidity Pressure Visibility Wind Dir Wind Speed Gust Speed Precip Events Conditions
12:53 AM 68.0 °F - 64.9 °F 90% 29.86 in 10.0 mi SSW 3.5 mph - N/A   Partly Cloudy
1:53 AM 70.0 °F - 68.0 °F 93% 29.85 in 10.0 mi South 5.8 mph - N/A   Overcast
2:53 AM 72.0 °F - 69.1 °F 91% 29.83 in 10.0 mi South 10.4 mph 18.4 mph N/A   Overcast
3:51 AM 71.6 °F - 69.8 °F 94% 29.84 in 8.0 mi South 10.4 mph - N/A   Overcast
3:53 AM 72.0 °F - 69.1 °F 91% 29.82 in 8.0 mi South 9.2 mph - N/A   Overcast
4:31 AM 71.6 °F - 69.8 °F 94% 29.83 in 8.0 mi South 8.1 mph - N/A   Overcast
4:51 AM 71.6 °F - 69.8 °F 94% 29.83 in 8.0 mi South 10.4 mph - N/A   Overcast
4:53 AM 72.0 °F - 69.1 °F 91% 29.81 in 8.0 mi South 10.4 mph - N/A   Overcast
5:53 AM 71.1 °F - 68.0 °F 90% 29.82 in 8.0 mi South 10.4 mph - N/A   Mostly Cloudy
6:53 AM 71.1 °F - 69.1 °F 93% 29.84 in 10.0 mi South 6.9 mph - N/A   Overcast
7:53 AM 71.1 °F - 69.1 °F 93% 29.86 in 10.0 mi South 8.1 mph - N/A   Overcast
8:35 AM 71.6 °F - 69.8 °F 94% 29.89 in 10.0 mi South 6.9 mph - N/A   Overcast
8:53 AM 72.0 °F - 69.1 °F 91% 29.88 in 10.0 mi South 5.8 mph - N/A   Overcast
9:53 AM 75.0 °F - 69.1 °F 82% 29.88 in 10.0 mi South 8.1 mph - N/A   Overcast
10:30 AM 75.2 °F - 69.8 °F 83% 29.92 in 10.0 mi SSW 9.2 mph - N/A   Overcast
10:53 AM 77.0 °F - 69.8 °F 78% 29.91 in 10.0 mi South 16.1 mph 23.0 mph N/A   Mostly Cloudy
11:53 AM 78.8 °F - 66.2 °F 65% 29.91 in 10.0 mi SSW 10.4 mph - N/A   Mostly Cloudy
12:53 PM 84.0 °F 86.3 °F 66.0 °F 55% 29.86 in 10.0 mi South 12.7 mph 18.4 mph N/A   Scattered Clouds
1:53 PM 84.0 °F 84.9 °F 63.0 °F 49% 29.84 in 10.0 mi South 10.4 mph - N/A   Scattered Clouds
2:53 PM 87.1 °F 87.8 °F 63.0 °F 44% 29.81 in 10.0 mi Variable 3.5 mph - N/A   Scattered Clouds
3:53 PM 86.0 °F 86.8 °F 63.0 °F 46% 29.81 in 10.0 mi SSE 6.9 mph - N/A   Mostly Cloudy
4:53 PM 87.1 °F 87.8 °F 63.0 °F 44% 29.81 in 10.0 mi SE 5.8 mph - N/A   Scattered Clouds
5:53 PM 86.0 °F 86.8 °F 63.0 °F 46% 29.81 in 10.0 mi SSE 4.6 mph - N/A   Mostly Cloudy
6:53 PM 82.0 °F 83.4 °F 64.0 °F 54% 29.83 in 10.0 mi East 4.6 mph - N/A   Mostly Cloudy
7:53 PM 80.6 °F 82.3 °F 64.4 °F 58% 29.87 in 10.0 mi East 4.6 mph - N/A   Overcast
8:53 PM 79.0 °F - 64.0 °F 60% 29.88 in 10.0 mi North 20.7 mph 25.3 mph N/A   Overcast
9:53 PM 71.1 °F - 55.9 °F 59% 29.93 in 10.0 mi NNE 16.1 mph - N/A   Overcast
10:53 PM 69.1 °F - 54.0 °F 58% 29.98 in 10.0 mi North 17.3 mph - N/A   Overcast
11:53 PM 64.4 °F - 51.8 °F 64% 30.01 in 10.0 mi North 18.4 mph - N/A   Overcast